VK5GR-12 Weather Reports


time (UTC)temp
C
wind
direction
speed
KPH
gust
KPH
rain 1hr
cm
rain 24hr
cm
rain mn
cm
humidity
%
barometer
mb
20260509024839 16 276 0.0 0.0 0.00 0.00 0.00 84 1029.3
20260509023336 16 262 0.0 0.0 0.00 0.00 0.00 85 1029.8
20260509021832 16 283 0.0 0.0 0.00 0.00 0.00 80 1030.0
20260509020331 16 293 0.0 0.0 0.00 0.00 0.00 80 1030.1
20260509014828 16 250 0.0 0.0 0.00 0.00 0.00 82 1030.4
20260509013324 16 284 0.0 0.0 0.00 0.00 0.00 79 1030.4
20260509011820 16 336 0.0 0.0 0.00 0.00 0.00 82 1030.3
20260509010318 15 279 0.0 0.0 0.00 0.00 0.00 85 1030.5
20260509004813 15 280 0.0 0.0 0.00 0.00 0.00 85 1030.4
20260509003312 15 279 0.0 0.0 0.00 0.00 0.00 91 1030.4
20260509001809 13 317 0.0 0.0 0.00 0.00 0.00 92 1030.5
20260509000306 13 337 0.0 0.0 0.00 0.00 0.00 95 1030.6
20260508234803 13 293 0.0 0.0 0.00 0.00 0.00 96 1030.8
20260508233302 13 293 0.0 0.0 0.00 0.00 0.00 97 1030.6
20260508231759 13 275 0.0 0.0 0.00 0.00 0.00 97 1030.5
20260508230254 12 306 0.0 0.0 0.00 0.00 0.00 97 1030.5
20260508224751 12 319 0.0 0.0 0.00 0.00 0.00 98 1030.2
20260508223249 12 292 0.0 0.0 0.00 0.00 0.00 98 1030.2
20260508221745 11 266 0.0 0.0 0.00 0.00 0.00 98 1030.0
20260508220240 11 286 0.0 0.0 0.00 0.00 0.00 98 1030.1
20260508214736 11 291 0.0 0.0 0.00 0.00 0.00 98 1030.1
20260508213232 11 293 0.0 0.0 0.00 0.00 0.00 98 1029.8
20260508211733 11 257 0.0 0.0 0.00 0.00 0.00 98 1029.6
20260508210229 11 307 0.0 0.0 0.00 0.00 0.00 98 1029.6
20260508204724 11 268 0.0 0.0 0.00 0.00 0.00 98 1029.7
20260508203219 10 268 0.0 0.0 0.00 0.00 0.00 98 1029.5
20260508201715 10 260 0.0 0.0 0.00 0.00 0.00 98 1029.4
20260508200210 10 271 0.0 0.0 0.00 0.00 0.00 98 1029.1
20260508194706 10 283 0.0 0.0 0.00 0.00 0.00 97 1029.1
20260508193202 10 280 0.0 0.0 0.00 0.00 0.00 97 1029.1
20260508191659 11 247 0.0 0.0 0.00 0.00 0.00 97 1029.1
20260508190155 10 269 0.0 0.0 0.00 0.00 0.00 97 1029.0
20260508184652 10 262 0.0 0.0 0.00 0.00 0.00 97 1028.7
20260508183148 10 268 0.0 0.0 0.00 0.00 0.00 97 1028.8
20260508181642 11 279 0.0 0.0 0.00 0.00 0.00 97 1029.0
20260508180139 11 279 0.0 0.0 0.00 0.00 0.00 97 1029.2
20260508174636 10 281 0.0 0.0 0.00 0.00 0.00 97 1029.1
20260508173131 10 262 0.0 0.0 0.00 0.00 0.00 97 1029.3
20260508171627 10 282 0.0 0.0 0.00 0.00 0.00 96 1029.3
20260508170124 10 287 0.0 0.0 0.00 0.00 0.00 96 1029.3
20260508164620 10 253 0.0 0.0 0.00 0.00 0.00 96 1029.1
20260508163117 10 292 0.0 0.0 0.00 0.00 0.00 96 1029.1
20260508161614 10 262 0.0 0.0 0.00 0.00 0.00 96 1029.2
20260508160113 10 269 0.0 0.0 0.00 0.00 0.00 95 1029.4
20260508154609 10 283 0.0 0.0 0.00 0.00 0.00 95 1029.2
20260508153105 11 254 0.0 0.0 0.00 0.00 0.00 95 1029.4
20260508151601 11 281 0.0 0.0 0.00 0.00 0.00 94 1029.4
20260508150056 11 266 0.0 0.0 0.00 0.00 0.00 94 1029.5
20260508144553 11 260 0.0 0.0 0.00 0.00 0.00 93 1029.6
20260508143050 11 270 0.0 0.0 0.00 0.05 0.05 93 1029.7
20260508141546 12 276 0.0 0.0 0.00 0.05 0.05 93 1029.6
20260508140043 12 290 0.0 0.0 0.00 0.05 0.05 93 1029.6
20260508134544 11 293 0.0 0.0 0.00 0.05 0.05 92 1029.6
20260508133041 12 267 0.0 0.0 0.00 0.05 0.05 92 1029.8
20260508131536 12 291 0.0 0.0 0.00 0.05 0.05 92 1029.8
20260508130033 12 258 0.0 0.0 0.00 0.05 0.05 92 1029.9
20260508124530 12 274 0.0 0.0 0.00 0.05 0.05 92 1030.0
20260508123027 11 271 0.0 0.0 0.00 0.05 0.05 92 1030.3
20260508121525 11 284 0.0 0.0 0.00 0.05 0.05 90 1030.1
20260508120024 11 268 0.0 0.0 0.00 0.05 0.05 89 1030.1
20260508114520 12 278 0.0 0.0 0.00 0.05 0.05 89 1030.0
20260508113017 12 268 0.0 0.0 0.00 0.05 0.05 88 1030.0
20260508111513 12 273 0.0 0.0 0.00 0.05 0.05 86 1030.1
20260508110009 12 269 1.6 1.6 0.00 0.05 0.05 85 1029.8
20260508104505 13 268 0.0 1.6 0.00 0.05 0.05 84 1030.1
20260508103001 13 220 1.6 3.2 0.00 0.05 0.05 82 1029.9
20260508101459 13 264 0.0 0.0 0.00 0.05 0.05 82 1030.0
20260508095956 13 288 0.0 0.0 0.00 0.05 0.05 84 1029.9
20260508094454 13 271 0.0 0.0 0.00 0.05 0.05 87 1029.8
20260508092951 13 269 0.0 0.0 0.00 0.05 0.05 87 1029.8
20260508091449 13 268 0.0 0.0 0.00 0.05 0.05 87 1029.7
20260508085947 13 275 0.0 0.0 0.00 0.05 0.05 86 1029.4
20260508084443 14 286 0.0 0.0 0.00 0.05 0.05 86 1029.6
20260508082938 14 286 1.6 3.2 0.00 0.05 0.05 85 1029.3
20260508081436 15 287 0.0 0.0 0.00 0.05 0.05 84 1029.3
20260508075932 15 292 0.0 0.0 0.00 0.05 0.05 83 1029.2
20260508074430 15 278 0.0 0.0 0.00 0.05 0.05 82 1029.1
20260508072927 15 282 1.6 1.6 0.00 0.05 0.05 80 1029.0
20260508071425 16 283 0.0 1.6 0.00 0.05 0.05 77 1029.0
20260508065924 16 291 1.6 1.6 0.00 0.05 0.05 78 1028.9
20260508064422 16 235 1.6 3.2 0.00 0.05 0.05 79 1029.0
20260508062920 16 287 0.0 1.6 0.00 0.05 0.05 78 1028.9
20260508061418 16 284 0.0 0.0 0.00 0.05 0.05 79 1029.0
20260508055913 16 277 0.0 1.6 0.00 0.05 0.05 77 1029.1
20260508054410 17 275 3.2 4.8 0.00 0.05 0.05 73 1029.1
20260508052907 17 293 1.6 1.6 0.00 0.05 0.05 73 1028.7
20260508051402 17 279 0.0 0.0 0.00 0.05 0.05 74 1028.9
20260508045903 16 308 1.6 1.6 0.00 0.05 0.05 75 1029.0
20260508044401 16 273 0.0 0.0 0.00 0.05 0.05 78 1029.1
20260508042856 17 259 0.0 1.6 0.00 0.05 0.05 72 1029.2
20260508041353 16 287 0.0 0.0 0.00 0.05 0.05 80 1029.2
20260508035850 16 279 0.0 1.6 0.00 0.05 0.05 83 1029.2
20260508034347 16 290 1.6 3.2 0.00 0.05 0.05 87 1029.5
20260508032845 15 276 0.0 0.0 0.00 0.05 0.05 90 1029.9
20260508031342 15 282 0.0 0.0 0.18 0.05 0.05 88 1029.9
20260508025838 16 218 0.0 1.6 0.00 0.03 0.03 88 1029.9